KAUS

Austin-Bergstrom International Airport

Airport
ICAO code
KAUS
Summary
ICAO Region
NAM
ICAO Territory
Location

Austin, Texas,

Coordinates
30° 12' 9" N , 97° 40' 5" W
KCC
Airport LOS
Parallel Runway Operation
Airport WX
Cumulonimbus
Metar
Observation
KAUS 302053Z 35012KT 4SM BR OVC008 00/M01 A3020 RMK AO2 SLP236 60000 T00001006 56018
Station
Austin, Austin-Bergstrom International Airport
Date/Time
2023-01-30 21:53:00
Wind direction
350°
Wind speed
12 kts
Lowest cloud amount
overcast
Temperature
0°C
Dew point
-0.6°C
Humidity
95%
Weather condition
mist

Description

Austin-Bergstrom International Airport is a public use airport located 8 km southeast of the central business district of Austin, in Travis County, Texas.

Climatology

Humid “subtropical” climate (Köppen climate classification Cfa) - characterized by hot, humid summers and cool winters. Significant amounts of precipitation occur in all seasons in most areas. Winter rainfall (and sometimes snowfall) is associated with large storms that the westerlies steer from west to east. Most summer rainfall occurs during thunderstorms and occasional tropical storms (hurricanes).

Airport map

Aerial View

SKYbrary Partners:

Safety knowledge contributed by: